Flag for Moldova Weather past 2 weeks in Bălți, Moldova

Now
82 °F

Pleasantly warm.


Feels Like: 81 °F
Forecast: 64 / 85 °F
Wind: 6 mph from East

Location: Baltsi-Leadoveni - The North of Moldova

Current Time: May 24, 2015 at 7:17:49 PM

Latest Report: May 24, 2015 at 7:00 PM


Visibility: N/A

Pressure: 29.86 "Hg

Humidity: 30%

Dew point: 48 °F

Location of BălțiLocation

Historic Weather in Bălți — Graph

°F

Bălți temperature yesterday

Maximum temperature yesterday: 82 °F (at 3:00 PM)
Minimum temperature yesterday: 55 °F (at 5:30 AM)
Average temperature yesterday: 71 °F

Past Weeks' High & Low Weather Summary

 TemperatureHumidityPressure
High86 °F (May 24, 4:00 PM)100% (May 14, 7:00 AM)30.30 "Hg (May 14, 7:00 AM)
Low48 °F (May 15, 4:30 AM)23% (May 9, 6:00 PM)29.59 "Hg (May 14, 6:30 PM)
Average64 °F53%30.00 "Hg
* Reported May 9 6:00 PM — May 24 6:00 PM, Bălți, Weather by CustomWeather, © 2015

Note: Actual official high and low records may vary slightly from our data, if they occured in-between our weather recording intervals... More about our weather records

Advertising

Bălți weather history for previous 24 hours

 ConditionsComfort  
Time TempWeatherWind HumidityBarometerVisibility
6:00 PM
Sun, May 24
82 °FPassing clouds.6 mph30%29.86 "HgN/A
5:00 PM82 °FPassing clouds.8 mph30%29.86 "HgN/A
4:30 PM84 °FPassing clouds.6 mph29%29.86 "HgN/A
4:00 PM86 °FSunny.6 mph27%29.86 "Hg10 mi
3:30 PM84 °FSunny.3 mph29%29.86 "Hg10 mi
3:00 PM84 °FSunny.6 mph29%29.89 "Hg10 mi
2:30 PM84 °FSunny.6 mph29%29.89 "Hg10 mi
2:00 PM84 °FPassing clouds.6 mph29%29.89 "HgN/A
1:00 PM81 °FPassing clouds.6 mph37%29.89 "HgN/A
12:00 PM81 °FPassing clouds.5 mph42%29.89 "HgN/A
11:00 AM77 °FPassing clouds.6 mph51%29.89 "HgN/A
10:30 AM75 °FPassing clouds.7 mph54%29.89 "HgN/A
10:00 AM73 °FPassing clouds.8 mph57%29.89 "HgN/A
9:00 AM68 °FPassing clouds.7 mph64%29.89 "HgN/A
8:00 AM64 °FMild.8 mph68%29.89 "HgN/A
7:30 AM63 °FMild.7 mph68%29.89 "HgN/A
7:00 AM63 °FMild.6 mph68%29.89 "HgN/A
6:00 AM63 °FMild.6 mph59%29.86 "HgN/A
5:30 AM63 °FMild.5 mph59%29.86 "HgN/A
5:00 AM61 °FRefreshingly cool.3 mph59%29.86 "HgN/A
4:30 AM64 °FMild.2 mph52%29.86 "HgN/A
4:00 AM68 °FMild.2 mph46%29.86 "HgN/A
3:00 AM68 °FMild.3 mph46%29.89 "HgN/A
2:00 AM68 °FMild.6 mph46%29.89 "HgN/A
1:30 AM70 °FMild.6 mph43%29.89 "HgN/A
1:00 AM70 °FMild.6 mph46%29.89 "HgN/A
12:00 AM68 °FMild.3 mph49%29.89 "HgN/A
11:30 PM
Sat, May 23
72 °FMild.5 mph47%29.89 "HgN/A
11:00 PM73 °FMild.5 mph44%29.89 "HgN/A
10:00 PM73 °FMild.6 mph38%29.89 "HgN/A
9:00 PM73 °FMild.7 mph38%29.89 "HgN/A
8:00 PM77 °FPleasantly warm.8 mph34%29.89 "HgN/A
7:30 PM77 °FPleasantly warm.9 mph34%29.89 "HgN/A
7:00 PM79 °FPleasantly warm.7 mph30%29.89 "HgN/A
Weather by CustomWeather, © 2015

See weather overviewHow to use our weather pages